| time (UTC) | temp F | wind direction | speed MPH | gust MPH | rain 1hr in | rain 24hr in | rain mn in | humidity % | barometer mb |
| 20260503054553 | 43 | 110 | 1.0 | 5.0 | 0.00 | 0.18 | 0.00 | 60 | 1001.5 |
| 20260503053055 | 43 | 94 | 4.0 | 15.0 | 0.00 | 0.18 | 0.00 | 58 | 1001.4 |
| 20260503051552 | 43 | 128 | 6.0 | 14.0 | 0.00 | 0.18 | 0.00 | 58 | 1001.4 |
| 20260503050049 | 44 | 108 | 4.0 | 9.0 | 0.00 | 0.18 | 0.00 | 58 | 1001.8 |
| 20260503044555 | 44 | 99 | 2.0 | 8.0 | 0.00 | 0.19 | 0.00 | 56 | 1002.1 |
| 20260503043053 | 45 | 143 | 2.0 | 9.0 | 0.00 | 0.19 | 0.00 | 56 | 1002.3 |
| 20260503041553 | 45 | 70 | 3.0 | 9.0 | 0.00 | 0.19 | 0.00 | 54 | 1002.2 |
| 20260503040054 | 45 | 137 | 4.0 | 9.0 | 0.00 | 0.19 | 0.00 | 52 | 1002.3 |
| 20260503034603 | 45 | 120 | 5.0 | 10.0 | 0.00 | 0.19 | 0.19 | 51 | 1002.2 |
| 20260503033057 | 46 | 104 | 5.0 | 10.0 | 0.00 | 0.19 | 0.19 | 50 | 1002.2 |
| 20260503031555 | 46 | 101 | 4.0 | 9.0 | 0.00 | 0.19 | 0.19 | 49 | 1002.1 |
| 20260503030053 | 46 | 68 | 3.0 | 6.0 | 0.00 | 0.19 | 0.19 | 50 | 1002.3 |
| 20260503024551 | 46 | 78 | 4.0 | 10.0 | 0.00 | 0.19 | 0.19 | 49 | 1002.4 |
| 20260503023057 | 46 | 133 | 4.0 | 9.0 | 0.00 | 0.19 | 0.19 | 48 | 1002.6 |
| 20260503021552 | 46 | 56 | 2.0 | 9.0 | 0.00 | 0.19 | 0.19 | 47 | 1002.8 |
| 20260503020056 | 47 | 0 | 0.0 | 4.0 | 0.00 | 0.19 | 0.19 | 51 | 1002.8 |
| 20260503014605 | 47 | 101 | 2.0 | 8.0 | 0.00 | 0.19 | 0.19 | 47 | 1002.7 |
| 20260503013050 | 48 | 67 | 4.0 | 11.0 | 0.00 | 0.19 | 0.19 | 45 | 1002.6 |
| 20260503011550 | 49 | 92 | 3.0 | 8.0 | 0.00 | 0.19 | 0.19 | 43 | 1002.5 |
| 20260503010055 | 49 | 102 | 1.0 | 7.0 | 0.00 | 0.19 | 0.19 | 43 | 1002.3 |
| 20260503004552 | 49 | 0 | 2.0 | 6.0 | 0.00 | 0.19 | 0.19 | 46 | 1002.2 |
| 20260503003104 | 50 | 60 | 2.0 | 7.0 | 0.00 | 0.19 | 0.19 | 42 | 1001.8 |
| 20260503001614 | 50 | 104 | 3.0 | 7.0 | 0.00 | 0.19 | 0.19 | 43 | 1001.7 |
| 20260503000121 | 51 | 0 | 0.0 | 0.0 | 0.00 | 0.19 | 0.19 | 52 | 1001.6 |
| 20260502234555 | 51 | 120 | 1.0 | 8.0 | 0.00 | 0.19 | 0.19 | 44 | 1001.6 |
| 20260502233052 | 52 | 115 | 1.0 | 6.0 | 0.00 | 0.19 | 0.19 | 43 | 1001.5 |
| 20260502231553 | 52 | 116 | 1.0 | 8.0 | 0.00 | 0.19 | 0.19 | 43 | 1001.4 |
| 20260502230050 | 53 | 31 | 2.0 | 6.0 | 0.00 | 0.19 | 0.19 | 42 | 1001.4 |
| 20260502224555 | 53 | 153 | 1.0 | 4.0 | 0.00 | 0.19 | 0.19 | 40 | 1001.3 |
| 20260502223052 | 54 | 149 | 0.0 | 5.0 | 0.00 | 0.19 | 0.19 | 40 | 1001.2 |
| 20260502221552 | 55 | 146 | 1.0 | 5.0 | 0.00 | 0.19 | 0.19 | 40 | 1001.1 |
| 20260502220055 | 55 | 0 | 0.0 | 4.0 | 0.00 | 0.19 | 0.19 | 41 | 1000.9 |
| 20260502214602 | 56 | 156 | 1.0 | 4.0 | 0.00 | 0.19 | 0.19 | 38 | 1000.9 |
| 20260502213052 | 56 | 274 | 3.0 | 9.0 | 0.00 | 0.19 | 0.19 | 36 | 1000.7 |
| 20260502211549 | 57 | 152 | 1.0 | 7.0 | 0.00 | 0.19 | 0.19 | 36 | 1000.5 |
| 20260502210107 | 57 | 167 | 2.0 | 10.0 | 0.00 | 0.19 | 0.19 | 37 | 1000.5 |
| 20260502204554 | 57 | 150 | 3.0 | 7.0 | 0.00 | 0.19 | 0.19 | 39 | 1000.4 |
| 20260502203055 | 57 | 235 | 1.0 | 6.0 | 0.00 | 0.19 | 0.19 | 40 | 1000.5 |
| 20260502201609 | 56 | 124 | 1.0 | 9.0 | 0.00 | 0.19 | 0.19 | 43 | 1000.6 |
| 20260502200055 | 57 | 73 | 1.0 | 8.0 | 0.00 | 0.19 | 0.19 | 45 | 1000.7 |
| 20260502194555 | 58 | 154 | 2.0 | 6.0 | 0.00 | 0.19 | 0.19 | 44 | 1000.9 |
| 20260502193053 | 56 | 0 | 0.0 | 3.0 | 0.00 | 0.19 | 0.19 | 56 | 1001.1 |
| 20260502191555 | 56 | 121 | 1.0 | 8.0 | 0.00 | 0.19 | 0.19 | 51 | 1001.4 |
| 20260502190057 | 56 | 168 | 1.0 | 3.0 | 0.00 | 0.19 | 0.19 | 45 | 1001.5 |
| 20260502184605 | 57 | 165 | 1.0 | 4.0 | 0.00 | 0.19 | 0.19 | 55 | 1001.4 |
| 20260502183103 | 55 | 154 | 1.0 | 6.0 | 0.00 | 0.19 | 0.19 | 51 | 1001.6 |
| 20260502181609 | 55 | 0 | 0.0 | 4.0 | 0.00 | 0.19 | 0.19 | 51 | 1001.5 |
| 20260502163058 | 55 | 97 | 2.0 | 6.0 | 0.00 | 0.19 | 0.19 | 62 | 1002.2 |
| 20260502161554 | 52 | 0 | 0.0 | 4.0 | 0.00 | 0.19 | 0.19 | 58 | 1002.5 |
| 20260502151617 | 53 | 103 | 0.0 | 4.0 | 0.00 | 0.19 | 0.19 | 70 | 1002.7 |
| 20260502150105 | 51 | 86 | 2.0 | 5.0 | 0.00 | 0.19 | 0.19 | 72 | 1003.0 |
| 20260502123103 | 46 | 0 | 0.0 | 2.0 | 0.00 | 0.19 | 0.19 | 94 | 1002.8 |
| 20260502121555 | 46 | 0 | 0.0 | 2.0 | 0.00 | 0.19 | 0.19 | 94 | 1002.5 |
| 20260502114551 | 46 | 0 | 0.0 | 0.0 | 0.00 | 0.19 | 0.19 | 93 | 1002.8 |
| 20260502113051 | 45 | 0 | 0.0 | 0.0 | 0.00 | 0.19 | 0.19 | 93 | 1002.6 |
| 20260502111556 | 45 | 0 | 0.0 | 0.0 | 0.00 | 0.19 | 0.19 | 93 | 1002.6 |
| 20260502110100 | 45 | 0 | 0.0 | 0.0 | 0.00 | 0.19 | 0.19 | 93 | 1002.1 |
| 20260502104552 | 45 | 0 | 0.0 | 1.0 | 0.00 | 0.19 | 0.19 | 93 | 1002.3 |
| 20260502103101 | 45 | 0 | 0.0 | 0.0 | 0.00 | 0.19 | 0.19 | 93 | 1002.3 |
| 20260502101626 | 45 | 0 | 0.0 | 0.0 | 0.01 | 0.19 | 0.19 | 93 | 1002.1 |
| 20260502100118 | 45 | 0 | 0.0 | 0.0 | 0.01 | 0.19 | 0.19 | 93 | 1001.9 |
| 20260502080106 | 46 | 0 | 0.0 | 1.0 | 0.05 | 0.15 | 0.15 | 91 | 1001.7 |
| 20260502070055 | 46 | 0 | 0.0 | 1.0 | 0.07 | 0.10 | 0.10 | 89 | 1002.2 |
| 20260502064558 | 47 | 242 | 0.0 | 2.0 | 0.05 | 0.08 | 0.08 | 89 | 1002.5 |
| 20260502063053 | 47 | 0 | 0.0 | 2.0 | 0.02 | 0.05 | 0.05 | 88 | 1002.8 |